Location: The Saddle
(36.8333°N, 80.3417°W)
Time: 07:06:46
(UTC-04:00)

A-11 Canister half - Pass Details

Date: 04 June 2024
Orbit: 1515 x 1685 km, 47.2° (Epoch: 17 June)

Event Time Altitude Azimuth Distance (km) Brightness Sun altitude
Rises 02:08:48 0° 273° (W) 4,832 11.5 -29.6°
Reaches altitude 10° 02:12:10 10° 280° (W) 3,822 11.0 -29.4°
Maximum altitude 02:21:24 46° 352° (N) 2,000 9.9 -28.9°
Drops below altitude 10° 02:30:20 10° 64° (ENE) 3,706 11.5 -28.4°
Sets 02:33:34 0° 71° (ENE) 4,675 12.1 -28.2°
